Weather History for KBIJ - March, 2012

Change the Weather History Date:

Tuesday, March 27, 2012

  Actual Average (KDHN) Record (KDHN)
Temperature  
Mean Temperature 70 °F 61 °F  
Max Temperature 82 °F 73 °F 86 °F (1945)
Min Temperature 59 °F 49 °F 25 °F (1955)
Degree Days  
Heating Degree Days 0 5  
Month to date heating degree days 192  
Since 1 July heating degree days 1751  
Cooling Degree Days 6 1  
Month to date cooling degree days 26  
Year to date cooling degree days 36  
Growing Degree Days 20 (Base 50)    
Moisture  
Dew Point 26 °F    
Average Humidity 20    
Maximum Humidity 88    
Minimum Humidity 6    
Precipitation  
Precipitation 0.00 in 0.24 in 2.21 in (1939)
Month to date precipitation 4.90  
Year to date precipitation 14.30  
Sea Level Pressure  
Sea Level Pressure 30.10 in    
Wind  
Wind Speed 1 mph (SSE)    
Max Wind Speed 8 mph    
Max Gust Speed -    
Visibility 8 miles    
Events      
T = Trace of Precipitation, MM = Missing Value Source: NWS Daily Summary

Daily Weather History Graph

Daily Weather History Graph

Search for Another Location

Airport or City:

Trip Planner

Search our weather history database for the weather conditions in past years. The results will help you decide how hot, cold, wet, or windy it might be!

Date:

Astronomy

Mar. 27, 2012 Rise Set
Actual Time 7:33 AM EDT 7:56 PM EDT
Civil Twilight 7:09 AM EDT 8:20 PM EDT
Nautical Twilight 6:41 AM EDT 8:48 PM EDT
Astronomical Twilight 6:12 AM EDT 9:17 PM EDT
Moon 10:22 AM EDT (3/27) No Moon Set
Length of Visible Light 13h 10m
Length of Day
12h 22m
Waxing Crescent, 22% of the Moon is Illuminated
Mar 27
Waxing Crescent
Mar 30
First Quarter
Apr 6
Full
Apr 13
Last Quarter
Apr 21
New

Hourly Weather History & Observations

Time (EDT) Temp. Dew Point Humidity Pressure Visibility Wind Dir Wind Speed Gust Speed Precip Events Conditions
12:15 AM - - N/A% 30.04 in 5.0 mi Calm Calm - N/A   Haze
12:35 AM - - N/A% 30.04 in 10.0 mi Calm Calm - N/A   Clear
12:55 AM - - N/A% 30.04 in 7.0 mi Calm Calm - N/A   Clear
1:15 AM - - N/A% 30.04 in 5.0 mi Calm Calm - N/A   Haze
1:35 AM - - N/A% 30.04 in 10.0 mi Calm Calm - N/A   Clear
1:55 AM - - N/A% 30.04 in 3.0 mi Calm Calm - N/A   Clear
2:15 AM - - N/A% 30.03 in 5.0 mi Calm Calm - N/A   Haze
2:35 AM - - N/A% 30.03 in 7.0 mi Calm Calm - N/A   Clear
2:55 AM - - N/A% 30.03 in 7.0 mi Calm Calm - N/A   Clear
3:15 AM - - N/A% 30.03 in 5.0 mi Calm Calm - N/A   Haze
3:35 AM - - N/A% 30.03 in 7.0 mi Calm Calm - N/A   Clear
3:55 AM - - N/A% 30.03 in 3.0 mi Calm Calm - N/A   Clear
4:15 AM - - N/A% 30.03 in 2.0 mi Calm Calm - N/A   Clear
4:35 AM - - N/A% 30.04 in 5.0 mi Calm Calm - N/A   Haze
4:55 AM - - N/A% 30.04 in 7.0 mi Calm Calm - N/A   Clear
5:15 AM - - N/A% 30.05 in 7.0 mi Calm Calm - N/A   Clear
5:35 AM - - N/A% 30.05 in 2.5 mi Calm Calm - N/A   Clear
5:55 AM - - N/A% 30.06 in 5.0 mi Calm Calm - N/A   Haze
6:15 AM - - N/A% 30.07 in 7.0 mi Calm Calm - N/A   Clear
6:35 AM - - N/A% 30.07 in 7.0 mi Calm Calm - N/A   Clear
6:55 AM - - N/A% 30.08 in 7.0 mi Calm Calm - N/A   Clear
7:15 AM - - N/A% 30.09 in 7.0 mi Calm Calm - N/A   Clear
7:35 AM - - N/A% 30.10 in 7.0 mi Calm Calm - N/A   Clear
7:55 AM - - N/A% 30.11 in 5.0 mi Calm Calm - N/A   Haze
8:15 AM - - N/A% 30.12 in 5.0 mi Calm Calm - N/A   Haze
8:35 AM - - N/A% 30.13 in 7.0 mi Calm Calm - N/A   Clear
8:55 AM - - N/A% 30.14 in 10.0 mi Calm Calm - N/A   Clear
9:15 AM 59.0 °F 55.4 °F 88% 30.14 in 7.0 mi Calm Calm - N/A   Clear
9:35 AM 60.8 °F 48.2 °F 63% 30.14 in 7.0 mi Calm Calm - N/A   Clear
9:55 AM 64.4 °F 44.6 °F 49% 30.16 in 7.0 mi East 3.5 mph - N/A   Clear
10:15 AM 68.0 °F 44.6 °F 43% 30.16 in 7.0 mi Calm Calm - N/A   Clear
10:55 AM 71.6 °F 42.8 °F 35% 30.17 in 7.0 mi Calm Calm - N/A   Clear
11:15 AM 73.4 °F 41.0 °F 31% 30.18 in 7.0 mi Calm Calm - N/A   Clear
11:35 AM 75.2 °F 41.0 °F 29% 30.18 in 7.0 mi Calm Calm - N/A   Clear
11:55 AM 77.0 °F 35.6 °F 22% 30.18 in 10.0 mi WSW 3.5 mph - N/A   Clear
12:15 PM 78.8 °F 32.0 °F 18% 30.18 in 10.0 mi SSW 4.6 mph - N/A   Clear
12:35 PM 78.8 °F 32.0 °F 18% 30.18 in 10.0 mi SSE 5.8 mph - N/A   Clear
12:55 PM 80.6 °F 21.2 °F 11% 30.18 in 10.0 mi South 5.8 mph - N/A   Clear
1:15 PM 80.6 °F 21.2 °F 11% 30.17 in 10.0 mi Calm Calm - N/A   Clear
1:35 PM 80.6 °F 19.4 °F 10% 30.17 in 10.0 mi ESE 3.5 mph - N/A   Clear
1:55 PM 80.6 °F 17.6 °F 10% 30.16 in 10.0 mi SE 8.1 mph - N/A   Clear
2:15 PM 80.6 °F 15.8 °F 9% 30.15 in 10.0 mi East 3.5 mph - N/A   Clear
2:35 PM 80.6 °F 14.0 °F 8% 30.14 in 10.0 mi Calm Calm - N/A   Clear
2:55 PM 82.4 °F 15.8 °F 8% 30.14 in 10.0 mi Calm Calm - N/A   Clear
3:15 PM 80.6 °F 12.2 °F 8% 30.13 in 10.0 mi ESE 4.6 mph - N/A   Clear
3:35 PM 80.6 °F 17.6 °F 10% 30.13 in 10.0 mi South 3.5 mph - N/A   Clear
3:55 PM 82.4 °F 14.0 °F 8% 30.12 in 10.0 mi SE 4.6 mph - N/A   Clear
4:15 PM 82.4 °F 14.0 °F 8% 30.12 in 10.0 mi SSW 3.5 mph - N/A   Clear
4:35 PM 82.4 °F 14.0 °F 8% 30.12 in 10.0 mi SE 3.5 mph - N/A   Clear
4:55 PM 82.4 °F 14.0 °F 8% 30.12 in 10.0 mi SE 5.8 mph - N/A   Clear
5:15 PM 80.6 °F 19.4 °F 10% 30.11 in 10.0 mi SSE 3.5 mph - N/A   Clear
5:35 PM 80.6 °F 17.6 °F 10% 30.11 in 10.0 mi Calm Calm - N/A   Clear
5:55 PM 82.4 °F 15.8 °F 8% 30.11 in 10.0 mi SSW 5.8 mph - N/A   Clear
6:15 PM 82.4 °F 6.8 °F 6% 30.11 in 10.0 mi South 3.5 mph - N/A   Clear
6:35 PM 80.6 °F 14.0 °F 8% 30.11 in 10.0 mi Calm Calm - N/A   Clear
6:55 PM 80.6 °F 19.4 °F 10% 30.11 in 10.0 mi Calm Calm - N/A   Clear
7:15 PM 77.0 °F 37.4 °F 24% 30.12 in 10.0 mi Calm Calm - N/A   Clear
7:35 PM 73.4 °F 41.0 °F 31% 30.12 in 10.0 mi Calm Calm - N/A   Clear
7:55 PM 69.8 °F 44.6 °F 40% 30.12 in 10.0 mi Calm Calm - N/A   Clear
8:15 PM 66.2 °F 44.6 °F 46% 30.13 in 10.0 mi Calm Calm - N/A   Clear
8:35 PM 64.4 °F 46.4 °F 52% 30.13 in 10.0 mi Calm Calm - N/A   Clear
8:55 PM 62.6 °F 46.4 °F 55% 30.13 in 10.0 mi Calm Calm - N/A   Clear
9:15 PM 62.6 °F 44.6 °F 52% 30.15 in 10.0 mi South 4.6 mph - N/A   Clear
9:35 PM 60.8 °F 44.6 °F 55% 30.16 in 10.0 mi Calm Calm - N/A   Clear
9:55 PM 60.8 °F 44.6 °F 55% 30.17 in 10.0 mi Calm Calm - N/A   Clear
10:15 PM 60.8 °F 44.6 °F 55% 30.17 in 10.0 mi Calm Calm - N/A   Clear
10:35 PM 59.0 °F 46.4 °F 63% 30.18 in 10.0 mi Calm Calm - N/A   Clear
10:55 PM 59.0 °F 46.4 °F 63% 30.19 in 10.0 mi Calm Calm - N/A   Clear
11:15 PM 59.0 °F 44.6 °F 59% 30.19 in 10.0 mi Calm Calm - N/A   Clear
11:35 PM 55.4 °F 44.6 °F 67% 30.19 in 10.0 mi Calm Calm - N/A   Clear
11:55 PM 57.2 °F 44.6 °F 63% 30.19 in 10.0 mi Calm Calm - N/A   Clear